SCP
1 1 1 1 1 1 1 0 0 0 0 0 0 0 1 1 1 1 1 1 1 1 1 1 0 0 0 0 0 0 0 0 0 0 0 1 1 1 1 1 1 1 0
2 1 1 1 1 1 1 0 0 0 0 0 0 1 1 1 1 1 1 1 1 1 1 1 0 0 0 0 0 0 0 0 0 0 0 0 0 1 1 1 1 1 0
2 2 1 1 1 1 1 1 0 0 0 0 1 1 1 1 1 1 1 1 1 1 1 1 0 0 0 0 0 0 0 0 0 0 0 0 0 0 1 1 1 1 1
1 1 1 1 1 1 1 1 1 1 0 1 1 1 1 1 1 1 1 1 1 1 1 0 0 0 0 0 0 0 0 0 0 0 0 0 0 1 1 1 1 1 1
1 1 1 1 1 1 1 1 1 1 1 1 1 1 1 1 1 1 1 1 1 1 1 0 0 0 0 0 0 0 0 0 0 0 0 1 1 1 1 1 1 1 1
1 1 1 1 1 1 1 1 1 0 0 1 1 1 1 1 1 1 1 1 1 1 0 0 0 0 0 0 0 0 0 0 1 1 1 1 1 1 1 1 1 1 1
1 1 1 1 1 1 1 0 0 0 0 0 1 1 1 1 1 1 1 1 1 0 0 0 0 0 0 0 0 0 0 0 1 1 1 1 1 1 1 1 1 0 0
1 1 1 1 1 1 0 0 0 0 0 0 0 1 1 1 1 1 1 1 1 0 0 0 0 0 0 0 0 0 0 0 0 1 1 1 1 1 1 1 1 0 0
1 1 1 0 0 0 0 0 0 0 0 0 0 1 1 1 1 1 1 1 1 1 0 0 0 0 0 0 0 0 0 0 0 1 1 1 1 1 1 1 1 1 0
2 1 1 0 0 0 0 0 1 1 1 1 0 0 0 0 0 0 1 1 1 1 0 0 0 0 0 0 0 0 0 0 0 1 1 1 2 2 2 1 1 1 0
2 1 1 1 0 0 0 0 1 1 1 1 0 0 0 0 0 1 1 1 1 1 1 1 0 0 0 0 0 0 0 0 0 1 1 2 2 2 2 1 1 1 1
2 2 1 1 1 0 1 1 1 1 1 1 1 1 0 0 1 1 1 1 1 1 1 1 1 0 0 0 0 0 0 0 0 1 2 2 2 2 2 1 1 1 1
2 2 2 1 1 1 1 1 1 1 1 1 1 1 1 1 1 2 2 2 2 2 1 1 1 1 0 0 0 0 0 0 1 1 2 2 2 2 2 1 1 1 1
2 2 2 2 2 2 2 2 1 1 1 1 1 2 2 2 2 3 3 3 3 2 2 2 1 1 1 1 1 1 1 1 1 1 2 2 2 2 2 1 1 1 1
2 2 2 3 3 3 4 3 3 3 4 3 3 3 3 4 5 5 5 5 4 4 3 3 3 2 2 2 1 1 1 1 1 1 1 1 1 2 2 1 1 1 1
2 2 2 4 5 6 6 5 5 5 6 6 5 5 5 6 7 8 7 6 5 5 5 5 4 3 3 2 2 1 1 1 1 1 1 1 1 1 1 1 1 1 1
4 4 4 5 7 8 8 7 6 7 7 7 7 8 8 8 8 8 8 7 6 6 6 5 4 4 3 2 2 2 1 1 1 1 1 1 1 1 1 1 1 1 2
6 6 7 7 9 10 9 9 9 8 8 8 9 10 9 8 8 8 7 7 7 6 6 5 4 3 3 2 2 2 1 1 1 1 1 1 1 1 1 1 1 1 1
10 10 11 11 12 12 11 11 11 11 9 10 10 10 9 8 8 7 6 6 6 6 5 4 3 3 2 2 2 1 1 1 1 1 0 0 0 0 0 0 0 1 1
13 14 15 15 15 14 12 12 12 11 11 11 11 11 10 8 8 7 6 6 6 5 4 3 2 2 1 1 1 1 1 1 0 0 0 0 0 0 0 0 0 0 0
15 15 16 18 18 16 13 11 11 11 11 11 12 12 12 10 8 6 6 6 5 4 3 3 2 1 1 1 1 1 0 0 0 0 0 0 0 0 0 0 0 0 0
16 16 18 20 20 18 14 11 10 10 10 10 11 12 11 9 7 5 5 5 4 3 2 2 1 1 0 0 0 0 0 0 0 0 0 0 0 0 0 0 0 0 0
20 19 20 21 21 18 14 12 10 11 11 10 10 9 8 6 4 4 4 3 3 2 1 1 1 1 0 0 0 0 0 0 0 0 0 0 0 0 0 0 0 0 0
25 23 22 22 21 18 16 13 11 11 10 9 8 6 5 4 3 3 3 3 2 1 1 1 0 0 0 0 0 0 0 0 0 0 0 0 0 0 0 0 0 0 0
23 23 22 21 21 21 19 15 12 10 9 7 6 5 4 3 2 2 2 2 1 1 0 0 0 0 0 0 0 0 0 0 0 0 0 0 0 0 0 0 0 0 0
20 21 21 19 20 23 21 15 12 9 7 6 5 4 3 2 1 1 1 1 1 0 0 0 0 0 0 0 0 0 0 0 0 0 0 0 0 0 0 0 0 0 0
Wind_Speed
18 18 18 16 14 13 13 13 13 13 13 12 11 10 10 11 12 13 13 13 12 12 12 11 10 9 9 9 9 9 9 9 10 11 12 12 11 10 9 7 5 11 12
22 19 18 16 14 13 13 13 14 14 13 12 11 10 10 11 11 12 12 12 12 11 11 10 9 8 8 7 7 7 6 5 5 7 9 10 10 9 9 10 10 10 11
21 18 17 16 15 14 13 13 14 14 14 13 12 11 10 10 11 11 11 11 11 10 10 9 8 8 7 6 5 4 3 1 1 3 5 6 8 9 9 11 13 11 10
20 17 16 17 16 15 14 14 15 14 14 13 12 12 11 11 11 11 11 11 10 10 9 8 8 7 6 5 4 2 2 3 3 4 4 2 6 10 9 9 10 9 8
18 16 17 18 17 16 15 15 15 15 14 14 13 12 11 11 10 10 10 10 9 9 8 8 7 6 4 3 2 2 4 6 7 8 3 3 6 10 9 8 8 7 6
19 18 18 17 17 16 15 15 15 15 14 14 13 12 11 11 10 10 9 9 8 8 7 7 6 4 3 2 2 3 6 8 10 6 1 5 7 10 9 7 6 6 5
19 18 18 17 17 16 16 15 15 14 14 13 12 12 11 10 9 9 8 8 7 7 6 6 5 3 2 1 2 4 7 10 8 7 2 5 9 12 10 8 6 5 4
19 19 17 17 17 16 15 14 14 13 12 12 11 11 10 9 9 8 8 7 7 6 6 5 3 2 1 1 3 6 8 11 9 7 5 8 12 12 10 8 6 4 3
19 19 16 15 14 15 14 14 13 13 12 11 11 10 10 9 8 8 7 7 6 6 5 4 3 2 1 3 5 7 9 11 9 6 5 7 12 12 10 7 6 4 3
19 19 15 15 14 13 12 13 13 13 12 11 11 10 10 9 8 8 8 7 7 6 5 4 4 3 4 6 7 8 10 10 8 4 5 8 12 12 10 7 6 4 3
17 18 16 16 14 13 13 13 13 12 11 11 10 10 9 8 8 8 9 11 9 7 6 6 6 7 7 9 11 11 9 6 5 3 6 11 11 11 10 7 5 4 4
17 19 16 16 15 14 12 12 9 9 10 9 8 9 7 6 5 7 11 13 11 9 9 9 10 9 9 6 9 11 6 8 5 6 7 12 11 11 9 7 5 5 4
16 16 17 17 14 14 10 11 7 7 8 9 9 10 7 5 4 6 6 7 7 9 7 7 8 7 7 5 4 6 6 3 3 6 7 10 9 9 8 7 5 5 5
17 16 16 18 14 11 11 10 8 7 8 8 8 11 7 3 3 5 5 6 6 5 5 5 5 7 5 3 2 2 0 2 5 6 6 10 8 7 6 5 4 4 4
17 15 15 15 12 8 8 9 8 8 9 8 8 7 7 5 4 4 3 3 3 3 4 2 2 1 0 1 2 3 4 5 7 7 5 9 9 7 5 4 2 2 3
17 15 13 15 13 9 7 5 5 6 6 7 7 8 8 5 5 4 3 2 1 1 2 1 1 2 2 3 4 5 7 7 7 6 5 6 8 7 6 4 3 2 2
15 15 12 13 14 11 9 7 6 6 7 6 6 8 7 6 5 4 3 3 2 2 3 3 3 4 3 4 5 6 5 6 7 6 4 3 4 6 6 6 5 5 4
15 14 13 14 15 11 9 7 5 5 7 6 6 6 6 5 5 4 3 3 3 3 3 3 3 3 3 3 3 4 4 4 5 4 4 3 2 3 4 5 4 3 3
13 14 13 12 14 13 10 7 5 4 5 5 4 4 4 4 5 4 3 3 4 3 2 3 3 2 2 2 2 2 2 2 2 2 2 3 2 1 2 5 5 3 2
12 13 12 10 12 12 9 6 4 5 4 4 4 5 6 5 5 4 3 3 3 3 2 3 3 3 2 1 1 1 0 0 1 1 2 2 2 2 1 2 3 4 5
12 13 12 11 11 10 8 8 6 6 5 4 5 6 6 5 4 3 3 3 3 3 3 4 3 2 2 1 1 0 1 2 2 1 1 1 2 2 2 2 2 1 3
8 12 12 11 12 10 7 6 4 5 4 5 5 6 6 5 4 3 3 3 3 3 3 3 2 2 2 2 1 1 2 1 1 1 1 2 2 2 2 4 3 3 2
4 6 11 11 11 10 10 7 6 5 5 4 5 5 5 6 5 5 4 3 3 3 3 2 2 2 2 1 1 1 1 1 3 2 2 2 2 2 2 3 5 4 4
9 5 6 10 10 10 10 9 10 7 6 5 6 6 8 8 8 7 7 6 5 4 4 3 3 2 2 2 2 2 2 2 1 3 3 2 4 4 4 5 5 4 4
13 11 9 9 9 8 7 7 7 7 7 7 8 10 9 8 9 9 8 7 7 6 6 6 5 5 3 3 2 1 1 0 1 2 4 4 3 3 4 5 4 4 4
14 14 14 14 12 10 9 8 9 10 10 10 9 9 8 7 7 9 9 8 8 7 7 6 5 6 4 4 3 2 1 1 1 2 3 4 5 4 4 4 4 4 4
Wind_Direction
123 129 126 123 122 127 133 135 133 130 125 119 113 104 97 92 90 90 91 93 94 95 95 93 89 83 77 70 66 66 68 72 77 83 87 87 85 83 76 70 111 95 96
124 128 125 123 122 126 132 135 135 132 129 125 121 114 107 101 98 96 95 95 96 97 97 96 94 89 83 77 74 72 73 78 94 108 112 105 96 85 66 50 65 100 101
122 128 126 123 123 125 130 133 134 134 135 133 129 124 117 110 104 100 99 98 98 98 97 95 93 89 84 80 76 73 67 63 137 158 167 131 111 93 78 74 84 96 97
125 134 130 126 125 126 129 132 134 137 138 137 135 130 124 117 111 107 103 101 99 98 97 94 90 87 84 80 73 54 340 297 283 258 234 184 120 104 91 85 86 91 93
129 132 129 132 128 127 128 131 134 138 139 139 137 133 128 122 116 112 108 105 103 102 100 97 93 90 84 73 51 351 305 296 298 281 265 101 101 116 106 98 92 90 87
135 133 135 135 132 131 131 132 135 137 139 139 139 136 131 126 121 118 115 111 109 108 105 102 98 92 83 61 8 318 300 300 303 279 166 135 123 124 118 111 103 96 87
139 134 140 138 136 135 135 135 136 138 139 140 139 137 133 129 126 123 121 119 117 115 112 109 105 96 76 26 328 307 300 300 285 285 64 120 125 129 124 119 111 103 95
139 135 140 142 140 140 139 138 137 137 138 138 137 135 134 132 131 130 129 126 124 122 120 119 117 109 69 322 303 298 296 296 289 300 122 119 129 128 125 123 119 117 113
140 136 146 148 145 144 143 141 138 136 135 135 135 136 139 140 142 142 138 135 134 133 134 139 150 174 236 266 275 281 286 290 291 284 130 124 130 128 126 127 130 133 132
142 140 152 154 153 154 151 148 144 140 138 139 142 147 151 154 159 160 157 153 150 152 158 166 185 215 238 249 255 261 270 286 274 286 104 119 126 124 125 129 137 144 150
146 142 156 157 160 164 162 154 151 149 147 149 155 162 168 182 181 181 183 157 164 170 178 188 206 224 236 241 245 251 262 258 256 112 104 124 128 125 126 132 141 151 158
150 150 160 160 165 172 167 152 163 166 161 177 173 174 194 210 190 180 158 164 174 182 191 204 216 228 236 238 234 240 250 247 249 117 115 130 132 129 131 139 150 162 173
156 159 162 162 168 174 160 154 171 175 164 192 182 177 198 204 177 151 156 167 181 192 202 207 219 231 229 226 212 208 231 263 88 104 116 122 125 128 135 148 163 178 190
162 169 165 160 168 173 159 161 171 171 164 184 176 179 183 191 181 165 171 175 187 197 199 193 219 225 238 245 255 265 357 46 91 100 112 116 115 119 130 146 169 188 203
165 172 169 161 161 164 151 160 172 166 170 172 163 175 163 177 187 168 168 166 186 176 173 202 237 223 61 353 347 358 19 42 69 98 111 113 111 109 116 126 149 209 235
165 171 169 161 153 155 150 159 156 157 150 150 153 164 167 169 164 155 151 141 126 106 113 126 60 63 56 37 31 34 33 33 39 59 97 109 105 104 99 89 68 13 323
163 166 162 159 154 159 162 171 161 160 151 151 150 160 168 166 149 145 135 132 126 101 87 77 56 56 59 48 39 36 37 35 31 31 36 88 112 104 96 87 73 53 29
163 160 162 167 159 161 163 172 167 167 152 149 153 157 160 152 136 129 125 127 120 103 95 94 79 76 63 56 51 43 38 37 29 21 12 8 77 116 121 115 106 88 57
156 154 159 161 158 163 163 163 168 151 144 147 144 136 138 128 123 121 120 121 118 108 108 116 96 99 87 74 84 72 47 42 19 2 9 343 350 24 135 146 151 152 146
149 149 152 152 152 155 157 158 163 149 138 128 112 107 109 108 110 115 120 121 123 124 117 103 104 87 89 92 60 75 75 145 286 325 310 324 331 308 319 147 173 194 205
143 148 153 157 152 153 160 167 167 158 143 120 104 105 106 108 109 108 117 123 133 138 135 130 113 107 80 44 64 258 231 210 218 216 238 292 297 301 312 297 266 247 193
145 153 154 156 155 158 155 152 152 142 125 110 106 100 96 98 103 112 119 132 131 122 123 122 107 105 76 41 36 25 315 317 355 252 211 233 269 282 278 279 262 232 229
62 150 160 157 154 152 146 142 133 112 108 112 113 99 81 77 73 72 84 92 104 113 121 120 131 141 124 81 33 98 119 317 347 321 266 257 257 262 272 287 285 269 247
24 54 125 141 143 145 146 151 151 146 141 126 111 95 77 65 65 65 67 70 74 74 82 84 68 68 110 121 79 45 69 83 21 326 309 266 247 245 246 259 269 281 277
31 44 66 98 109 120 127 136 134 124 113 105 99 92 84 71 65 66 69 72 73 72 71 69 67 61 61 76 77 74 81 92 191 252 295 311 303 266 250 246 246 246 248
41 47 56 68 69 78 88 94 102 107 108 106 103 100 89 80 73 70 73 74 76 78 76 75 74 72 69 69 58 47 41 18 310 274 287 305 305 305 304 291 268 252 248